Tracking 25370 objects as of 25-Jan-2022
HD Live streaming from Space Station
objects crossing your sky now

GLOBALSTAR M094

Track GLOBALSTAR M094 now!
10-day predictions
GLOBALSTAR M094 is classified as:


NORAD ID: 39074
Int'l Code: 2013-005C
Perigee: 1,420.4 km
Apogee: 1,421.1 km
Inclination: 52.0 °
Period: 114.1 minutes
Semi major axis: 7791 km
RCS: 3.814 m2 (large)
Launch date: February 6, 2013
Source: Globalstar (GLOB)
Launch site: TYURATAM MISSILE AND SPACE COMPLEX (TTMTR)

GLOBALSTAR M094 is part of Globalstar's second-generation satellite fleet, which began launching in 2010.
aabbcc
Your satellite tracking list
Your tracking list is empty




NASA's NSSDC Master Catalog

Two Line Element Set (TLE):
1 39074U 13005C   22025.18473655 -.00000102  00000-0  80868-5 0  9991
2 39074  51.9979 354.5213 0000461  70.3393 289.7524 12.62264871415921
Source of the keplerian elements: AFSPC